sat.trackr.live / text

‹ back to catalog

STARLINK-31110

NORAD 58679 · 2023-211N

PAYLOAD ACTIVE UNKNOWN

§ Identity

Operator
Country
US
Launch date
2023-12-29
Launch site
AFETR
Launch vehicle
Mass (kg)
RCS (m²)

Purposes: comms

External: N2YO · Heavens-Above · Gunter

§ Orbital elements

Epoch: 2026-05-25T01:00:37.136736Z

Period
94.27 min
Inclination
43.0015°
Eccentricity
0.0001548
Mean motion
15.27586443 rev/d
Perigee alt
482.0 km
Apogee alt
484.1 km
Semi-major
6,861.2 km
B*
1.5181e-4
RAAN
13.9157°
Arg perigee
276.9536°
Mean anomaly
83.1140°
Rev number
13,414

§ Raw data

STARLINK-311101 58679U 23211N   26145.04209649  .00003918  00000+0  15181-3 0  99952 58679  43.0015  13.9157 0001548 276.9536  83.1140 15.27586443134147

JSON: /api/v1/satellites/58679 · /tle

For live sub-satellite position, see the globe view (requires WebGL).

§ Visibility from observer

Set your observer location to see the next 7 days of passes ≥ 10°. The values pass through the URL so the page stays shareable.

No JS? Fill the form by hand. The geolocation button needs JavaScript.